TimeCDT,TemperatureF,Dew PointF,Humidity,Sea Level PressureIn,VisibilityMPH,Wind Direction,Wind SpeedMPH,Gust SpeedMPH,PrecipitationIn,Events,Conditions,WindDirDegrees,DateUTC
12:53 AM,62.1,61.0,96,30.02,10.0,Calm,Calm,-,N/A,,Clear,0,2013-07-13 05:53:00
1:53 AM,62.1,60.1,93,30.02,10.0,Calm,Calm,-,N/A,,Clear,0,2013-07-13 06:53:00
5:51 AM,57.2,57.2,100,30.05,6.0,Calm,Calm,-,N/A,,Haze,0,2013-07-13 10:51:00
6:53 AM,62.6,60.8,94,30.05,8.0,Calm,Calm,-,N/A,,Clear,0,2013-07-13 11:53:00
7:57 AM,69.8,62.6,78,30.04,10.0,NNE,4.6,-,N/A,,Clear,30,2013-07-13 12:57:00
8:56 AM,73.4,62.6,69,30.06,10.0,ENE,8.1,-,N/A,,Clear,60,2013-07-13 13:56:00
9:52 AM,78.8,62.6,57,30.05,10.0,NE,6.9,-,N/A,,Clear,40,2013-07-13 14:52:00
10:54 AM,80.6,60.8,51,30.06,10.0,NNE,11.5,-,N/A,,Partly Cloudy,20,2013-07-13 15:54:00
12:07 PM,82.4,60.8,48,30.05,10.0,ENE,12.7,-,N/A,,Scattered Clouds,60,2013-07-13 17:07:00
1:19 PM,82.4,62.6,51,30.04,10.0,ENE,8.1,-,N/A,,Partly Cloudy,70,2013-07-13 18:19:00
2:07 PM,82.4,60.8,48,30.03,10.0,NE,10.4,-,N/A,,Partly Cloudy,40,2013-07-13 19:07:00
2:52 PM,82.4,60.8,48,30.01,10.0,NNE,9.2,-,N/A,,Scattered Clouds,30,2013-07-13 19:52:00
3:52 PM,82.4,60.8,48,30.00,10.0,ENE,9.2,-,N/A,,Partly Cloudy,70,2013-07-13 20:52:00
3:53 PM,82.9,60.1,46,29.99,10.0,ENE,8.1,-,N/A,,Partly Cloudy,60,2013-07-13 20:53:00
4:50 PM,82.4,60.8,48,30.00,10.0,NE,5.8,-,N/A,,Scattered Clouds,50,2013-07-13 21:50:00
4:53 PM,84.0,62.1,47,30.00,10.0,ENE,8.1,-,N/A,,Scattered Clouds,60,2013-07-13 21:53:00
5:53 PM,82.9,61.0,47,29.99,10.0,East,9.2,-,N/A,,Clear,80,2013-07-13 22:53:00
6:53 PM,81.0,60.1,49,29.99,10.0,ENE,6.9,-,N/A,,Clear,70,2013-07-13 23:53:00
7:53 PM,78.1,61.0,56,30.00,10.0,ENE,5.8,-,N/A,,Clear,70,2013-07-14 00:53:00
8:53 PM,75.0,62.1,64,30.01,10.0,Calm,Calm,-,N/A,,Clear,0,2013-07-14 01:53:00
9:53 PM,70.0,63.0,78,30.01,10.0,Calm,Calm,-,N/A,,Clear,0,2013-07-14 02:53:00
10:53 PM,71.1,63.0,75,30.03,9.0,Calm,Calm,-,N/A,,Clear,0,2013-07-14 03:53:00
11:53 PM,69.1,63.0,81,30.02,10.0,East,3.5,-,N/A,,Clear,90,2013-07-14 04:53:00